WA6MHA-11 Weather Reports


time (UTC)temp
F
wind
direction
speed
knots
gust
knots
rain 1hr
in
rain 24hr
in
rain mn
in
humidity
%
barometer
mb
20211208125640 40 0 0.9 0.9 0.00 0.00 0.00 62 1018.5
20211208123232 41 225 0.0 1.7 0.00 0.00 0.00 62 1017.9
20211208122430 41 180 1.7 1.7 0.00 0.00 0.00 62 1017.8
20211208121628 41 180 0.0 0.9 0.00 0.00 0.00 62 1017.8
20211208121226 41 182 0.9 1.7 0.00 0.00 0.00 62 1017.8
20211208120418 41 315 0.9 1.7 0.00 0.00 0.00 62 1017.9
20211208115214 41 315 0.9 0.9 0.00 0.00 0.00 62 1017.7
20211208114814 41 45 0.0 0.9 0.00 0.00 0.00 62 1017.4
20211208114148 41 315 0.0 0.9 0.00 0.00 0.00 62 1017.4
20211208114010 41 315 0.0 0.9 0.00 0.00 0.00 62 1017.4
20211208113609 41 0 0.9 0.9 0.00 0.00 0.00 62 1017.4
20211208113208 41 243 0.0 0.0 0.00 0.00 0.00 62 1017.5
20211208112003 42 225 0.0 0.0 0.00 0.00 0.00 62 1017.5
20211208111603 42 225 0.0 0.9 0.00 0.00 0.00 62 1017.4
20211208110359 42 0 0.0 0.9 0.00 0.00 0.00 62 1017.5
20211208105957 42 351 0.9 0.9 0.00 0.00 0.00 62 1017.5
20211208105556 42 225 0.0 0.0 0.00 0.00 0.00 62 1017.4
20211208105156 42 225 0.0 0.0 0.00 0.00 0.00 62 1017.5
20211208104753 42 225 0.0 0.0 0.00 0.00 0.00 62 1017.5
20211208103951 43 0 0.0 0.9 0.00 0.00 0.00 62 1017.4
20211208103148 42 0 0.0 0.9 0.00 0.00 0.00 62 1017.5
20211208102346 42 240 0.0 0.0 0.00 0.00 0.00 62 1017.6
20211208101945 42 247 0.0 0.0 0.00 0.00 0.00 62 1017.6
20211208101544 43 135 0.0 0.0 0.00 0.00 0.00 62 1017.6
20211208101142 43 45 0.0 0.9 0.00 0.00 0.00 62 1017.7
20211208100740 44 180 0.0 0.9 0.00 0.00 0.00 62 1017.8
20211208095938 43 180 1.7 1.7 0.00 0.00 0.00 62 1017.8
20211208094734 43 315 0.0 0.9 0.00 0.00 0.00 62 1018.0
20211208094333 43 315 0.9 0.9 0.00 0.00 0.00 62 1018.0
20211208093932 43 270 0.9 0.9 0.00 0.00 0.00 61 1017.9
20211208093530 43 270 0.9 0.9 0.00 0.00 0.00 61 1017.9
20211208093129 44 225 0.0 0.0 0.00 0.00 0.00 61 1017.9
20211208092327 44 225 0.0 0.0 0.00 0.00 0.00 61 1018.0
20211208091530 44 225 0.9 1.7 0.00 0.00 0.00 61 1018.0
20211208091123 44 225 0.9 0.9 0.00 0.00 0.00 61 1018.1
20211208090724 44 225 0.9 0.9 0.00 0.00 0.00 61 1018.1
20211208085922 44 180 0.0 0.0 0.00 0.00 0.00 61 1018.3
20211208084717 45 225 0.0 0.9 0.00 0.00 0.00 61 1018.3
20211208084314 45 270 0.9 0.9 0.00 0.00 0.00 61 1018.4
20211208083110 45 225 0.0 0.9 0.00 0.00 0.00 61 1018.6
20211208082709 45 225 0.9 0.9 0.00 0.00 0.00 61 1018.6
20211208081104 45 0 0.0 0.0 0.00 0.00 0.00 61 1018.6
20211208080702 45 315 0.0 0.0 0.00 0.00 0.00 61 1018.7
20211208075459 45 315 0.0 0.9 0.00 0.00 0.00 61 1018.6
20211208075058 45 315 0.9 0.9 0.00 0.00 0.00 61 1018.6
20211208073051 46 315 0.0 0.9 0.00 0.00 0.00 61 1018.6
20211208065842 46 234 0.0 0.0 0.00 0.00 0.00 61 1018.7
20211208060222 47 180 0.0 0.9 0.00 0.00 0.00 60 1018.4
20211208055822 47 180 0.9 0.9 0.00 0.00 0.00 60 1018.4
20211208055019 47 0 1.7 1.7 0.00 0.00 0.00 59 1018.3
20211208054216 48 180 0.9 1.7 0.00 0.00 0.00 59 1018.2
20211208053815 48 225 0.9 0.9 0.00 0.00 0.00 59 1018.2
20211208053416 48 0 0.0 0.9 0.00 0.00 0.00 59 1018.1
20211208053013 48 0 0.9 0.9 0.00 0.00 0.00 59 1018.1
20211208052612 48 0 0.0 0.0 0.00 0.00 0.00 59 1018.0
20211208052210 48 270 0.0 0.0 0.00 0.00 0.00 59 1017.8
20211208051809 49 274 0.0 0.0 0.00 0.00 0.00 59 1017.8
20211208051408 49 270 0.0 0.9 0.00 0.00 0.00 59 1017.9
20211208050606 49 180 0.0 0.9 0.00 0.00 0.00 59 1017.9
20211208050204 49 180 0.0 0.0 0.00 0.00 0.00 59 1017.7
20211208045401 49 90 0.0 0.0 0.00 0.00 0.00 59 1017.6
20211208044558 49 90 0.0 0.0 0.00 0.00 0.00 58 1017.6
20211208044157 49 90 0.0 0.0 0.00 0.00 0.00 58 1017.7
20211208043757 49 90 0.0 0.9 0.00 0.00 0.00 58 1017.6
20211208043356 49 90 0.0 0.0 0.00 0.00 0.00 58 1017.5
20211208042953 49 90 0.0 0.0 0.00 0.00 0.00 58 1017.5
20211208042552 49 90 0.0 0.0 0.00 0.00 0.00 58 1017.5
20211208042151 50 90 0.0 0.0 0.00 0.00 0.00 58 1017.4
20211208041350 50 180 0.0 0.9 0.00 0.00 0.00 58 1017.5
20211208040948 50 180 0.9 0.9 0.00 0.00 0.00 58 1017.4
20211208040545 50 225 0.9 1.7 0.00 0.00 0.00 58 1017.5
20211208035743 51 270 0.0 0.9 0.00 0.00 0.00 57 1017.5
20211208035342 51 270 0.9 0.9 0.00 0.00 0.00 57 1017.5
20211208034941 51 274 0.9 0.9 0.00 0.00 0.00 57 1017.4
20211208033736 52 315 0.9 0.9 0.00 0.00 0.00 57 1017.4
20211208033337 52 315 0.0 0.9 0.00 0.00 0.00 56 1017.3
20211208032533 52 315 0.0 0.9 0.00 0.00 0.00 56 1017.3
20211208031730 53 0 0.0 0.0 0.00 0.00 0.00 56 1017.3
20211208031329 53 270 0.0 0.9 0.00 0.00 0.00 56 1017.4
20211208030929 54 135 0.0 0.0 0.00 0.00 0.00 56 1017.3
20211208030125 54 270 0.0 0.0 0.00 0.00 0.00 55 1017.2
20211208025724 54 270 0.0 0.0 0.00 0.00 0.00 55 1017.2
20211208025323 54 270 0.0 0.0 0.00 0.00 0.00 55 1017.3
20211208024921 55 270 0.0 0.0 0.00 0.00 0.00 55 1017.2
20211208024520 55 270 0.0 0.0 0.00 0.00 0.00 55 1017.2
20211208024119 55 270 0.0 0.0 0.00 0.00 0.00 55 1017.2
20211208023718 56 225 0.0 0.9 0.00 0.00 0.00 55 1017.3
20211208022915 56 247 0.0 0.0 0.00 0.00 0.00 54 1017.3
20211208022116 57 180 0.0 0.0 0.00 0.00 0.00 54 1017.2
20211208021711 57 135 0.0 0.9 0.00 0.00 0.00 54 1017.2
20211208021311 57 128 0.0 1.7 0.00 0.00 0.00 54 1017.1
20211208020908 58 135 0.9 1.7 0.00 0.00 0.00 54 1017.1
20211208020509 58 92 0.9 2.6 0.00 0.00 0.00 54 1017.1
20211208020110 58 90 0.0 3.5 0.00 0.00 0.00 54 1017.1
20211208015706 58 108 0.9 0.9 0.00 0.00 0.00 53 1017.0
20211208015305 58 45 0.0 0.0 0.00 0.00 0.00 53 1017.1
20211208014903 58 90 0.0 0.9 0.00 0.00 0.00 53 1017.0
20211208014059 58 94 0.9 2.6 0.00 0.00 0.00 53 1017.0
20211208013658 58 90 0.9 1.7 0.00 0.00 0.00 53 1017.1
20211208013259 58 90 0.0 1.7 0.00 0.00 0.00 53 1017.0
20211208012857 58 182 0.0 1.7 0.00 0.00 0.00 53 1017.1
20211208012455 58 130 0.0 1.7 0.00 0.00 0.00 52 1017.1
20211208011653 59 151 0.9 0.9 0.00 0.00 0.00 52 1017.1
20211208011250 59 135 0.0 0.9 0.00 0.00 0.00 52 1017.1
20211208010451 59 180 2.6 2.6 0.00 0.00 0.00 51 1017.1
20211208005245 59 146 0.0 4.3 0.00 0.00 0.00 51 1017.0
20211208004443 60 180 0.9 2.6 0.00 0.00 0.00 51 1016.9
20211208004041 60 180 0.9 1.7 0.00 0.00 0.00 50 1017.0
20211208002838 60 180 4.3 5.2 0.00 0.00 0.00 50 1016.8
20211208002036 61 200 1.7 3.5 0.00 0.00 0.00 50 1016.7
20211208001633 61 180 1.7 4.3 0.00 0.00 0.00 49 1016.6
20211208001233 31 184 2.6 3.5 0.00 0.00 0.00 49 1016.6
20211208000431 61 128 3.5 3.5 0.00 0.00 0.00 49 1016.6
20211207235626 62 157 0.9 3.5 0.00 0.00 0.00 49 1016.7
20211207235225 62 135 0.9 4.3 0.00 0.00 0.00 48 1016.6
20211207234824 62 117 3.5 3.5 0.00 0.00 0.00 48 1016.6
20211207234423 62 175 1.7 2.6 0.00 0.00 0.00 48 1016.5
20211207234022 62 171 0.9 9.6 0.00 0.00 0.00 48 1016.6
20211207233219 62 114 3.5 3.5 0.00 0.00 0.00 48 1016.5
20211207232819 63 147 2.6 8.7 0.00 0.00 0.00 48 1016.4
20211207232416 63 101 3.5 4.3 0.00 0.00 0.00 48 1016.4
20211207232015 63 119 2.6 4.3 0.00 0.00 0.00 48 1016.4
20211207231613 63 85 0.0 0.9 0.00 0.00 0.00 48 1016.4
20211207231212 63 99 0.9 5.2 0.00 0.00 0.00 48 1016.4
20211207230811 63 137 0.9 4.3 0.00 0.00 0.00 48 1016.6
20211207230009 63 4 3.5 5.2 0.00 0.00 0.00 48 1016.5
20211207225607 63 126 1.7 6.1 0.00 0.00 0.00 48 1016.5
20211207225206 63 49 2.6 4.3 0.00 0.00 0.00 49 1016.5
20211207224403 64 180 3.5 6.1 0.00 0.00 0.00 49 1016.6
20211207224002 64 114 3.5 7.0 0.00 0.00 0.00 49 1016.6
20211207223602 65 96 3.5 4.3 0.00 0.00 0.00 49 1016.6
20211207223201 65 180 0.9 1.7 0.00 0.00 0.00 49 1016.5
20211207222357 64 105 2.6 6.1 0.00 0.00 0.00 49 1016.5
20211207221555 65 94 5.2 6.1 0.00 0.00 0.00 49 1016.5
20211207221153 65 105 1.7 2.6 0.00 0.00 0.00 49 1016.4
20211207220753 66 180 2.6 5.2 0.00 0.00 0.00 49 1016.3
20211207220350 66 83 1.7 3.5 0.00 0.00 0.00 49 1016.3
20211207215548 66 175 5.2 6.1 0.00 0.00 0.00 50 1016.4
20211207215147 66 177 2.6 2.6 0.00 0.00 0.00 50 1016.4
20211207214747 66 177 1.7 4.3 0.00 0.00 0.00 50 1016.3
20211207214344 66 173 2.6 6.1 0.00 0.00 0.00 50 1016.4
20211207213942 66 180 5.2 5.2 0.00 0.00 0.00 50 1016.3
20211207213541 66 180 2.6 3.5 0.00 0.00 0.00 50 1016.3
20211207213140 66 180 3.5 3.5 0.00 0.00 0.00 50 1016.3
20211207212739 66 180 2.6 4.3 0.00 0.00 0.00 51 1016.4
20211207212339 65 95 0.9 2.6 0.00 0.00 0.00 51 1016.4
20211207211535 64 87 1.7 4.3 0.00 0.00 0.00 51 1016.6
20211207210733 714 80 1.7 5.2 0.00 0.00 0.00 51 1016.7
20211207204726 64 94 5.2 5.2 0.00 0.00 0.00 52 1016.6
20211207204325 64 99 1.7 5.2 0.00 0.00 0.00 52 1016.6
20211207203924 64 90 2.6 3.5 0.00 0.00 0.00 52 1016.6
20211207203524 64 101 1.7 3.5 0.00 0.00 0.00 53 1016.6
20211207202723 64 180 0.9 2.6 0.00 0.00 0.00 53 1016.7
20211207202318 63 139 0.9 4.3 0.00 0.00 0.00 53 1016.7
20211207201516 64 180 1.7 4.3 0.00 0.00 0.00 54 1016.9
20211207201116 63 132 2.6 5.2 0.00 0.00 0.00 54 1016.9
20211207200713 63 126 5.2 5.2 0.00 0.00 0.00 54 1017.0
20211207200313 63 217 2.6 3.5 0.00 0.00 0.00 55 1016.9
20211207195912 64 67 0.0 2.6 0.00 0.00 0.00 55 1016.9
20211207195511 64 144 0.0 4.3 0.00 0.00 0.00 55 1017.1
20211207195110 63 110 3.5 5.2 0.00 0.00 0.00 56 1017.1
20211207193504 62 99 4.3 4.3 0.00 0.00 0.00 57 1017.1
20211207193102 728 126 1.7 4.3 0.00 0.00 0.00 58 1017.1
20211207192701 62 99 2.6 4.3 0.00 0.00 0.00 58 1017.2
20211207192300 63 130 1.7 2.6 0.00 0.00 0.00 59 1017.4
20211207191055 64 310 0.0 0.9 0.00 0.00 0.00 61 1017.6
20211207190654 63 207 0.9 2.6 0.00 0.00 0.00 61 1017.6
20211207190255 62 175 2.6 2.6 0.00 0.00 0.00 62 1017.6
20211207185853 61 231 0.9 1.7 0.00 0.00 0.00 62 1017.6
20211207185452 60 94 0.9 1.7 0.00 0.00 0.00 63 1017.4
20211207185049 60 99 0.9 3.5 0.00 0.00 0.00 63 1017.4
20211207184247 59 193 0.9 2.6 0.00 0.00 0.00 64 1017.6
20211207183847 59 184 1.7 1.7 0.00 0.00 0.00 64 1017.5
20211207183444 58 225 0.0 0.9 0.00 0.00 0.00 63 1017.5
20211207183043 58 234 0.9 0.9 0.00 0.00 0.00 63 1017.6
20211207182641 58 99 0.0 0.9 0.00 0.00 0.00 62 1017.5
20211207181841 58 0 0.0 0.9 0.00 0.00 0.00 59 1017.7
20211207180635 57 126 2.6 3.5 0.00 0.00 0.00 58 1017.4
20211207180233 57 112 1.7 2.6 0.00 0.00 0.00 58 1017.5
20211207175832 57 148 2.6 7.0 0.00 0.00 0.00 58 1017.3
20211207175431 31 96 7.0 7.0 0.00 0.00 0.00 58 1017.3
20211207175034 56 81 3.5 4.3 0.00 0.00 0.00 58 1017.4
20211207174629 56 81 2.6 3.5 0.00 0.00 0.00 58 1017.5
20211207173826 56 90 1.7 4.3 0.00 0.00 0.00 59 1017.5
20211207171820 56 0 0.0 0.0 0.00 0.00 0.00 59 1017.2
20211207171418 56 353 0.0 0.0 0.00 0.00 0.00 59 1017.2
20211207171017 56 270 0.0 1.7 0.00 0.00 0.00 59 1017.3
20211207170616 56 270 0.9 0.9 0.00 0.00 0.00 59 1017.4
20211207165010 55 85 0.0 0.9 0.00 0.00 0.00 59 1016.9
20211207162202 54 227 0.0 0.0 0.00 0.00 0.00 60 1017.1
20211207161800 54 225 0.0 0.9 0.00 0.00 0.00 60 1017.3
20211207154551 53 270 0.9 1.7 0.00 0.00 0.00 60 1017.0
20211207153346 53 315 0.9 0.9 0.00 0.00 0.00 60 1016.7
20211207151340 53 225 0.0 0.9 0.00 0.00 0.00 60 1016.6
20211207150136 53 310 0.0 0.9 0.00 0.00 0.00 60 1016.4
20211207144531 53 315 0.9 0.9 0.00 0.00 0.00 59 1016.6
20211207143328 53 270 0.0 0.0 0.00 0.00 0.00 59 1016.5
20211207142123 53 270 0.0 0.9 0.00 0.00 0.00 59 1016.5
20211207141722 53 270 0.0 0.0 0.00 0.00 0.00 59 1016.5
20211207135315 53 90 0.0 0.0 0.00 0.00 0.00 59 1016.4
20211207134512 53 90 0.0 0.0 0.00 0.00 0.00 59 1016.3
20211207134111 53 108 0.0 0.0 0.00 0.00 0.00 59 1016.4
20211207133710 53 135 0.0 0.0 0.00 0.00 0.00 59 1016.5
20211207133311 53 135 0.0 0.0 0.00 0.00 0.00 59 1016.4
20211207132908 53 270 0.0 0.0 0.00 0.00 0.00 59 1016.5
20211207130900 53 285 0.9 1.7 0.00 0.00 0.00 59 1016.6
20211207130459 54 272 0.9 0.9 0.00 0.00 0.00 58 1016.5